sat.trackr.live / text

‹ back to catalog

STARLINK-5168

NORAD 54071 · 2022-136W

PAYLOAD ACTIVE UNKNOWN

§ Identity

Operator
Country
US
Launch date
2022-10-20
Launch site
AFETR
Launch vehicle
Mass (kg)
RCS (m²)

Purposes: comms

External: N2YO · Heavens-Above · Gunter

§ Orbital elements

Epoch: 2026-09-20T11:20:43.835712Z

Period
93.85 min
Inclination
53.1618°
Eccentricity
0.0001043
Mean motion
15.34386308 rev/d
Perigee alt
462.0 km
Apogee alt
463.5 km
Semi-major
6,840.9 km
B*
1.6374e-5
RAAN
177.5346°
Arg perigee
87.5216°
Mean anomaly
272.5906°
Rev number
21,641

§ Raw data

STARLINK-51681 54071U 22136W   26263.47272958  .00000177  00000+0  16374-4 0  99932 54071  53.1618 177.5346 0001043  87.5216 272.5906 15.34386308216419

JSON: /api/v1/satellites/54071 · /tle

For live sub-satellite position, see the globe view (requires WebGL).

§ Visibility from observer

Set your observer location to see the next 7 days of passes ≥ 10°. The values pass through the URL so the page stays shareable.

No JS? Fill the form by hand. The geolocation button needs JavaScript.